Location: Palomar Mountain Lodge
(33.3110°N, 116.8495°W)
Time: 15:05:00
(UTC-07:00)

Cosmos 1726 - Pass Details

Date: 14 June 2018
Orbit: 484 x 503 km, 82.5° (Epoch: 18 September)

Event Time Altitude Azimuth Distance (km) Brightness Sun altitude
Rises 23:17:37 0° 352° (N) 2,587 6.8 -29.4°
Reaches altitude 10° 23:19:44 10° 352° (N) 1,703 5.7 -29.6°
Enters shadow 23:21:19 24° 350° (N) 1,070 4.4 -29.7°
